Regional Weather Roundup
Issued by NWS

Home | Current Version | Previous Version | Text Only | Print | Product List | Glossary On
Versions: 1 2 3 4 5 6 7 8 9 10 11 12 13 14 15 16 17 18 19 20 21 22 23 24 25 26 27 28 29 30 31 32 33 34 35 36 37 38 39 40 41 42 43 44 45 46 47 48 49 50
000
ASUS44 KOUN 041900
RWROK

WEATHER ROUNDUP FOR OKLAHOMA
NATIONAL WEATHER SERVICE NORMAN OK
200 PM CDT FRI SEP 04 2015

NOTE: "FAIR" INDICATES FEW OR NO CLOUDS BELOW 12,000 FEET WITH NO
      SIGNIFICANT WEATHER AND/OR OBSTRUCTIONS TO VISIBILITY.

OKZ001>007-009>012-014-015-017-042000-
NORTHWEST OKLAHOMA AND THE PANHANDLE

CITY           SKY/WX    TMP DP  RH WIND       PRES   REMARKS
GAGE           SUNNY     95  60  31 S20G29    29.94F HX  95
GUYMON         MOSUNNY   92  56  29 S12       29.92F HX  90
$$

OKZ016-021>023-033>039-044-045-042000-
SOUTHWEST OKLAHOMA

CITY           SKY/WX    TMP DP  RH WIND       PRES   REMARKS
LAWTON/REGL    MOSUNNY   93  64  38 S13       29.94F HX  94
LAWTON/FT SILL MOSUNNY   94  67  40 S14G21    29.93F HX  97
FREDERICK      MOSUNNY   94  64  37 S12       29.91F HX  95
CLINTON        SUNNY     93  61  34 S16G22    29.97F HX  93
HOBART         MOSUNNY   96  64  34 S20G25    29.95F HX  98
ALTUS AFB      SUNNY     95  62  33 SE13      29.93F HX  95
$$

OKZ018>020-024>031-042000-
CENTRAL OKLAHOMA

CITY           SKY/WX    TMP DP  RH WIND       PRES   REMARKS
OKLAHOMA CITY  PTSUNNY   91  67  44 S12G22    29.96F HX  94
OKC/WILEY POST MOSUNNY   92  66  42 S13       29.96F HX  94
STILLWATER     MOSUNNY   93  66  40 S17       29.95F HX  96
GUTHRIE        SUNNY     94  66  39 S9G21     29.95F HX  97
$$

OKZ008-013-054>072-042000-
NORTHEAST OKLAHOMA

CITY           SKY/WX    TMP DP  RH WIND       PRES   REMARKS
TULSA          PTSUNNY   91  71  51 S12       29.96F HX  97
TULSA/JONES    PTSUNNY   91  69  48 S6G17     29.96F HX  96
PONCA CITY     MOSUNNY   92  68  45 S9G20     29.94F HX  96
BARTLESVILLE   MOSUNNY   90  71  53 S12G17    29.97F HX  96
MUSKOGEE       MOSUNNY   89  71  55 S10       29.99F HX  95
$$

OKZ032-040>043-046>053-073>077-042000-
SOUTH CENTRAL/SOUTHEAST OKLAHOMA

CITY           SKY/WX    TMP DP  RH WIND       PRES   REMARKS
MCALESTER      MOSUNNY   92  70  48 VRB7      29.98F HX  97
$$



USA.gov is the U.S. government's official web portal to all federal, state and local government web resources and services.